Regional Weather Roundup
Issued by NWS

Home | Current Version | Previous Version | Graphics & Text | Print | Product List | Glossary On
Versions: 1 2 3 4 5 6 7 8 9 10 11 12 13 14 15 16 17 18 19 20 21 22 23 24 25 26 27 28 29 30 31 32 33 34 35 36 37 38 39 40 41 42 43 44 45 46 47 48 49 50
000
ASUS45 KTFX 190204
RWRMT
MONTANA HOURLY WEATHER ROUNDUP
NATIONAL WEATHER SERVICE GREAT FALLS MT
804 PM MDT FRI APR 18 2014

NOTE: "FAIR" INDICATES FEW OR NO CLOUDS BELOW 12000 FEET WITH NO
SIGNIFICANT WEATHER AND/OR OBSTRUCTIONS TO VISIBILITY.

* THESE STATIONS ARE NOT UNDER NWS QUALITY CONTROL. THEY DO NOT
   REPORT WEATHER SUCH AS PRECIPITATION OR FOG.

MTZ001>007-043-190300-
WEST OF THE DIVIDE
CITY           SKY/WX    TMP DP  RH WIND       PRES   REMARKS
KALISPELL      CLOUDY    45  28  51 SW13      29.94R
MISSOULA       MOCLDY    48  19  32 NW9       30.00R
BUTTE          CLEAR     39   9  29 W12G20    29.94R WCI  32
MULLAN PASS    MOCLDY    28  25  89 VRB7      29.95S WCI  21
* ESSEX        N/A       33  32  96 S2         N/A
* LINCOLN      N/A       42  14  32 SW11G29    N/A
* LOOKOUT PASS N/A       36  25  64 S4G11      N/A
* POLSON       N/A       43  22  43 S3G10      N/A
* SEELEY LAKE  N/A       41  21  45 N8G15      N/A
* THOMP F APT  PTCLDY    53   3  13 NW7G19     N/A
$$

MTZ008-052>055-190300-
SOUTHWEST MONTANA
CITY           SKY/WX    TMP DP  RH WIND       PRES   REMARKS
BOZEMAN        PTCLDY    45   9  23 W21G30    29.92R
DILLON         CLEAR     45   5  19 NW20G26   29.95R
W YELLOWSTONE  N/A       38  32  79 SW6G17     N/A   WCI  33
* THREE FORKS  CLEAR     48  10  21 SW24G36    N/A
* BOULDER HILL N/A       40   4  22 S9G22      N/A   WCI  34
* MONIDA PASS  N/A       45  12  26 NW16G25    N/A
* RAYNOLDS PAS N/A       41  39  93 VRB10      N/A
* WHITEHALL    N/A       48   9  20 W14G29     N/A
* WISE RIVER   N/A       40   9  28 NW17G34    N/A   WCI  31
$$

MTZ009>010-012-014-046-048-049-054-190300-
EAST SLOPES AND CENTRAL MONTANA
CITY           SKY/WX    TMP DP  RH WIND       PRES   REMARKS
CUT BANK       PTCLDY    39  27  62 W25G32    29.73R WCI  28
GREAT FALLS    MOCLDY    45  18  34 W22G31    29.79R
HELENA         CLEAR     48  10  21 W8G16     29.87R
MALMSTROM AFB  MOCLDY    48  16  28 SW21G29   29.77R
* CONRAD       PTCLDY    46  19  34 SW24G36    N/A
* DEARBORN     N/A       48  13  24 S16G27     N/A
* EAST GLACIER N/A       34  25  70 W19G29     N/A   WCI  23
* MONARCH      N/A       38   6  26 W24G37     N/A   WCI  27
* PENDROY      N/A       40  17  39 W38G46     N/A   WCI  27
* ROGERS PASS  N/A       36  13  39 E7G35      N/A   WCI  30
* SAINT MARY   N/A       35  24  64 SW11G27    N/A   WCI  27
* SWEET GRASS  N/A       43  21  42 W32G42     N/A
$$

MTZ011-013-016-021-035-040-045-047-050-051-190300-
NORTH CENTRAL MONTANA
CITY           SKY/WX    TMP DP  RH WIND       PRES   REMARKS
HAVRE          PTCLDY    48  21  34 W25G33    29.70R
LEWISTOWN      PTCLDY    43  16  34 W21G26    29.80R
* CHESTER      N/A       46  19  34 W30G42     N/A
* DENTON       N/A       47  14  26 W22G33     N/A
* GEYSER       N/A       42  11  28 W21G29     N/A
* JUDITH GAP   N/A       42  12  29 W27G35     N/A
* LOMA         N/A       50  15  25 SW22G35    N/A
$$

MTZ017>020-022>027-061-062-190300-
NORTHEAST MONTANA
CITY           SKY/WX    TMP DP  RH WIND       PRES   REMARKS
GLASGOW        MOCLDY    43  37  79 NW13      29.72S
GLENDIVE       CLEAR     46  41  83 W7        29.69R
JORDAN         MOCLDY    45  37  74 SW5       29.72R
SIDNEY         PTCLDY    45  43  93 W3        29.68R
WOLF POINT     LGT RAIN  45  39  80 W24G36    29.69R
* BEAVER HILL  N/A       46  44  93 SE4        N/A
* CIRCLE       N/A       48  39  71 W11G28     N/A
* LINDSAY DVD  N/A       43  40  89 W5         N/A
* NAVAJO       N/A       40  39  96 SW7        N/A   WCI  35
* SACO         N/A       44  37  76 N/A        N/A
$$

MTZ028>042-056>058-190300-
SOUTHCENTRAL AND SOUTHEAST MONTANA
CITY           SKY/WX    TMP DP  RH WIND       PRES   REMARKS
BAKER          CLOUDY    48  43  83 CALM      29.68R
BILLINGS       MOCLDY    48  23  37 NW21      29.81R
LIVINGSTON     PTCLDY    46  12  25 W16G25    29.84R
MILES CITY     LGT RAIN  54  41  62 W16G25    29.74R
* LAUREL APT   PTCLDY    50  21  32 W22G31     N/A
* ROUNDUP APT  MOCLDY    52  12  20 SW26G43    N/A
* HYSHAM       N/A       42  36  79 NW8        N/A
* LAME DEER    N/A       51  37  59 NW6        N/A
* REED POINT   N/A       48  28  46 SW10G15    N/A
* ROSCOE HILL  N/A       37  28  70 W8G20      N/A   WCI  31
$$

REGIONAL REPORTS...DAKOTAS
CITY           SKY/WX    TMP DP  RH WIND       PRES   REMARKS
WILLISTON      CLOUDY    45  43  93 W6        29.65F
DICKINSON      LGT RAIN  50  41  71 NW25G35   29.64R
CROSBY         FOG       43  43 100 SE23      29.62F
TIOGA          RAIN      45  45 100 NE5       29.73R VSB 3
WATFORD CITY   LGT RAIN  45  45 100 NE6       29.65F
BISMARCK       CLOUDY    50  39  66 E18       29.61F
GRAND FORKS    CLOUDY    46  28  50 SE26G40   29.96F
FARGO          CLOUDY    45  28  51 SE29G39   29.95F
BUFFALO SD     CLOUDY    52  39  61 NW24      29.61R
RAPID CITY     CLOUDY    68  36  31 NW13      29.62R
$$

REGIONAL REPORTS...WYOMING/IDAHO/WASHINGTON
CITY           SKY/WX    TMP DP  RH WIND       PRES   REMARKS
GILLETTE       CLOUDY    52  39  61 NE13      29.75R
SHERIDAN       MOCLDY    52  41  66 W5        29.74R
CODY           PTCLDY    54  21  27 W10G17    29.81R
YELLOWSTONE LA PTCLDY    36  23  59 W9        29.95R WCI  29
SALMON         MOCLDY    48  10  21 N13G18    29.94S
MULLAN PASS    MOCLDY    28  25  89 VRB7      29.95S WCI  21
SPOKANE        PTCLDY    50  21  32 S12       29.95S
$$

REGIONAL REPORTS...ALBERTA
CITY           SKY/WX    TMP DP  RH WIND       PRES   REMARKS
LETHBRIDGE     RAINSNOW  34  32  92 W24       29.74R VSB 2 1/2 WCI  22

$$




USA.gov is the U.S. government's official web portal to all federal, state and local government web resources and services.